Location: Casamocza
(42.5198°N, 9.4404°E)
Time: 07:35:21
(UTC+00:00)

Daily predictions for brighter satellites

Satellite Brightness Start Highest point End
(mag) Time Altitude Azimuth Time Altitude Azimuth Time Altitude Azimuth
Cosmos 2184 Rocket 4.1 16:13:44 10° N 16:20:09 77° E 16:26:29 10° SSE
Cosmos 1814 Rocket 4.4 16:16:13 10° SSW 16:21:33 73° WNW 16:26:53 10° NNE
Cosmos 1980 4.0 16:17:17 10° S 16:22:46 52° ESE 16:28:16 10° NNE
Cosmos 2221 2.7 16:22:21 10° S 16:26:42 81° W 16:31:03 10° N
H-2A R/B 3.5 16:25:41 10° S 16:29:25 59° W 16:33:14 10° NNW
Meteor 2-2 Rocket 4.5 16:28:02 10° S 16:34:01 85° W 16:39:57 10° N
Abrixas rocket 1.7 16:31:16 10° WNW 16:34:01 67° NNE 16:36:46 10° ESE
YAOGAN 6 2.6 16:30:36 10° SSE 16:34:16 86° ENE 16:37:55 10° N
Cosmos 1500 Rocket 3.5 16:30:05 10° N 16:34:29 81° E 16:38:54 10° S
CZ-4C R/B 3.9 16:36:17 10° N 16:39:51 54° WNW 16:43:22 10° SSW
NOSS 2-1 (C) 4.5 16:35:20 10° NW 16:40:38 86° ENE 16:48:11 10° SE
Cosmos 405 Rocket 2.8 16:38:47 10° N 16:42:42 90° SSE 16:46:40 10° S
YAOGAN 1 4.3 16:44:13 12° ENE 16:44:46 13° ENE 16:46:39 10° NE
ADEOS Rocket 4.1 16:37:25 10° N 16:45:00 65° WNW 16:52:39 10° SSW
Cosmos 389 Rocket 3.1 16:42:31 10° SSE 16:45:38 33° E 16:48:46 10° NNE
Cosmos 1943 Rocket 3.6 16:44:36 10° N 16:48:00 16° NE 16:50:06 14° ENE
H-2A R/B 3.4 16:45:11 10° S 16:49:29 55° WSW 16:53:40 10° NNW
Cosmos 1933 4.4 16:46:58 10° SE 16:50:17 25° E 16:53:38 10° NNE
BREEZE-M DEB (TANK) 2.9 16:49:42 10° W 16:51:43 29° NNW 16:53:03 16° NE
SL-16 R/B 3.0 16:47:45 10° SSE 16:52:35 30° ESE 16:56:52 13° NE
Cosmos 1867 4.0 16:47:43 10° S 16:52:46 42° ESE 16:57:16 13° NE
Cosmos 1689 Rocket 4.0 16:53:23 14° ESE 16:53:23 14° ESE 16:54:42 10° SE
USA 215 3.3 16:47:51 10° NE 16:54:26 76° SE 17:00:57 10° SW
CZ-2C R/B 4.1 16:50:58 10° ESE 16:54:47 22° ENE 16:58:30 10° NNE
Okean-O 3.9 16:52:54 10° ESE 16:56:05 20° ENE 16:59:17 10° NNE
Cosmos 1743 Rocket 4.4 16:52:23 10° NNW 16:56:47 56° W 17:01:07 10° S
COSMO-SKYMED 1 3.3 16:53:01 10° NNE 16:56:57 33° E 17:00:51 10° SSE
Cosmos 2298 Rocket 4.4 16:53:27 10° NNW 16:58:44 70° WSW 17:04:00 10° S
Cosmos 2218 Rocket 4.5 16:54:01 10° N 16:59:36 35° ENE 17:05:08 10° SE
AQUARIUS 4.2 16:55:39 10° SSE 17:00:08 84° WSW 17:04:39 10° NNW
Cosmos 2150 Rocket 4.2 16:54:59 10° NNW 17:00:08 74° WSW 17:05:15 10° S
Cosmos 1818 3.6 16:56:08 10° NNW 17:01:39 87° ENE 17:07:05 10° SSE
Cosmos 1606 2.7 16:59:21 10° S 17:03:12 65° E 17:07:05 10° NNE
Sich 1 3.0 17:01:37 10° N 17:06:00 66° E 17:10:18 10° SSE
BREEZE-M TANK 3.3 17:01:27 10° WNW 17:06:57 53° SSW 17:10:08 10° SE
Okean O Rocket 2.0 17:02:50 10° S 17:07:10 68° W 17:11:31 10° NNW
Cosmos 2333 Rocket 4.2 17:03:57 10° WSW 17:08:33 25° NW 17:13:11 10° N
Cosmos 1782 4.4 17:05:51 10° SE 17:07:35 17° ESE 17:07:35 17° ESE
Helios 1A Rocket 3.9 17:07:32 20° E 17:08:42 23° ENE 17:11:55 10° NNE
Cosmos 2366 rocket 4.3 17:04:56 10° N 17:10:46 40° ENE 17:16:30 10° SE
ISS -2.8 17:08:37 10° W 17:11:50 41° NNW 17:13:33 22° NNE
COSMOS 2428 4.5 17:09:03 10° WSW 17:13:57 28° NW 17:18:54 10° N
Feng Yun 1-1 Rocket 4.3 17:09:11 10° SSE 17:14:56 67° ENE 17:20:36 10° N
Cosmos 1125 Rocket 3.6 17:09:45 10° NNW 17:14:58 78° WSW 17:20:09 10° SSE
Cosmos 1356 3.2 17:12:17 10° N 17:15:42 67° E 17:19:05 10° SSE
Cosmos 1805 Rocket 3.9 17:12:27 10° NNW 17:16:55 70° W 17:21:18 10° S
Meteor 1-20 Rocket 4.4 17:11:32 10° N 17:17:15 51° ENE 17:22:54 10° SSE
SAR-Lupe-4 3.7 17:15:58 20° NNE 17:18:11 50° E 17:21:39 10° S
CZ-4B R/B 1.4 17:17:20 10° N 17:20:23 67° WNW 17:23:28 10° SSW
Cosmos 1151 Rocket 3.2 17:16:20 10° SSE 17:20:26 45° E 17:23:24 17° NNE
Cosmos 2278 Rocket 3.1 17:16:40 10° NW 17:22:10 51° WSW 17:27:38 10° S
Cosmos 1666 Rocket 3.5 17:18:46 10° N 17:23:08 64° E 17:27:31 10° SSE
IRS-1C Rocket 4.0 17:19:13 10° SSE 17:24:24 62° ENE 17:29:37 10° N
USA 267 3.4 17:21:44 20° E 17:26:15 53° NNE 17:32:35 10° NW
Cosmos 1328 Rocket 3.7 17:22:14 10° SSE 17:26:21 46° E 17:28:37 24° NNE
Lacrosse 5 rocket 1.6 17:24:25 10° SSW 17:27:49 37° SE 17:28:08 36° ESE
FALCON 9 R/B 2.7 17:31:51 10° SSW 17:33:18 15° SSE 17:33:18 15° SSE
ERS-2 2.7 17:30:06 10° N 17:33:43 57° WNW 17:37:17 10° SSW
CZ-2D R/B 3.1 17:30:22 10° SSE 17:34:07 63° ENE 17:37:55 10° N
Cosmos 2341 Rocket 4.1 17:29:01 10° N 17:35:19 81° W 17:41:38 10° S
SAR-Lupe-1 3.9 17:33:32 28° NNE 17:35:20 81° ESE 17:38:56 10° S
EO 1 Delta rocket 4.4 17:30:08 10° NNE 17:35:28 64° E 17:42:10 10° S
SL-24 R/B 3.7 17:32:45 20° NNE 17:35:30 70° E 17:39:14 10° S
Meteor 1-25 Rocket 4.1 17:30:27 10° N 17:36:03 70° ENE 17:41:42 10° SSE
CZ-4 R/B 1.9 17:38:23 37° NNE 17:38:23 37° NNE 17:41:13 10° N
Meteor 1-4 Rocket 4.0 17:34:15 10° SSE 17:35:58 23° SE 17:35:58 23° SE
CZ-3B R/B 2.8 17:40:10 10° SSW 17:42:22 23° S 17:42:22 23° S
BREEZE-M DEB (TANK) 3.4 17:41:38 10° W 17:43:13 28° WNW 17:43:13 28° WNW
SKYMED 2 3.7 17:40:47 10° N 17:45:08 74° WNW 17:49:27 10° SSW
USA 81 4.0 17:41:34 10° N 17:46:54 88° WSW 17:52:09 10° S
SL-24 DEB 4.1 17:43:52 10° N 17:48:38 70° E 17:53:20 10° S
Cosmos 2237 Rocket 3.5 17:43:34 10° WSW 17:48:42 36° WNW 17:53:54 10° N
Cosmos 1939 Rocket 3.4 17:46:04 10° S 17:49:50 55° W 17:53:40 10° NNW
Cosmos 2285 Rocket 3.9 17:44:06 10° NNW 17:50:31 71° ENE 17:56:51 10° SSE
H-2A R/B 2.2 17:52:26 47° E 17:52:49 48° ENE 17:57:51 10° N
Cosmos 1633 Rocket 3.2 17:49:29 10° NNW 17:53:51 72° W 17:58:10 10° S
Nadezhda 3 Rocket 4.5 17:50:15 10° SSE 17:55:05 38° ESE 17:55:05 38° ESE
Cosmos 773 Rocket 3.9 17:52:16 10° SSW 17:57:29 76° ESE 17:59:15 43° NNE
SL-8 Rocket 4.3 17:53:16 10° NNW 17:59:27 69° W 18:05:40 10° S
Cosmos 864 Rocket 4.4 17:53:10 10° N 17:59:32 88° W 18:05:48 10° S
USA 281 3.1 17:54:02 10° SSE 18:00:36 88° ENE 18:07:12 10° NNW
CSL-04 Rocket 4.1 18:01:44 43° NNE 18:01:44 43° NNE 18:05:46 10° N
Cosmos 2181 Rocket 4.4 17:57:30 10° SSW 18:03:53 64° W 18:10:15 10° N
Cosmos 2369 Rocket 3.3 17:58:44 10° N 18:02:10 29° NNE 18:02:10 29° NNE
MOS 1 Rocket 3.5 18:03:47 29° NNE 18:06:38 80° ESE 18:12:03 10° S
Cosmos 1821 Rocket 4.5 18:07:12 10° N 18:11:28 41° NNE 18:11:28 41° NNE
Cosmos 1241 Rocket 4.4 18:09:16 10° NNW 18:15:55 75° ENE 18:17:23 55° ESE
YAOGAN 1 3.3 18:21:23 47° NW 18:21:23 47° NW 18:24:38 10° NNW
SL-08 R/B 4.4 18:22:03 10° N 18:28:14 82° W 18:34:20 10° S
Cosmos 2297 4.3 18:23:52 10° NNW 18:29:24 55° WSW 18:34:09 14° S
Okean-O 3.8 18:28:05 10° S 18:32:16 41° W 18:36:29 10° NNW
Cosmos 1943 Rocket 2.3 18:26:56 10° NNW 18:31:41 66° NNW 18:31:41 66° NNW
Meteor 1-14 Rocket 4.4 18:26:44 10° NNW 18:32:41 75° W 18:38:38 10° S
Cosmos 44 3.7 18:27:34 10° NW 18:32:40 71° W 18:32:40 71° W
CZ-2C R/B 3.9 18:29:22 10° S 18:34:23 47° W 18:39:11 10° NNW
SL-16 R/B 3.3 18:31:11 10° SW 18:36:31 41° WNW 18:38:47 29° N
USA 215 4.1 18:35:12 33° N 18:37:07 41° NNW 18:43:08 10° W
USA 267 3.8 19:09:07 51° SW 19:09:16 51° SW 19:15:37 10° WNW
ATLAS CENTAUR R/B 4.2 19:09:50 10° NW 19:26:07 55° WSW 19:27:27 51° SSW
H-2A R/B 4.3 19:33:04 22° W 19:33:04 22° W 19:36:31 10° NW
